| time (UTC) | temp F | wind direction | speed knots | gust knots | rain 1hr in | rain 24hr in | rain mn in | humidity % | barometer mb |
| 20260508183040 | 52 | 0 | 0.9 | 3.5 | 0.00 | 0.95 | 0.05 | 71 | 1001.0 |
| 20260508181549 | 53 | 106 | 1.7 | 4.3 | 0.00 | 0.95 | 0.05 | 71 | 1001.0 |
| 20260508180046 | 54 | 137 | 1.7 | 7.8 | 0.00 | 0.95 | 0.05 | 70 | 1000.9 |
| 20260508174542 | 57 | 141 | 3.5 | 9.6 | 0.00 | 1.00 | 0.05 | 62 | 1000.6 |
| 20260508173044 | 57 | 179 | 1.7 | 7.8 | 0.00 | 1.00 | 0.05 | 67 | 1000.7 |
| 20260508171541 | 57 | 61 | 2.6 | 7.8 | 0.00 | 1.00 | 0.05 | 65 | 1001.0 |
| 20260508170044 | 57 | 129 | 2.6 | 7.8 | 0.00 | 1.00 | 0.05 | 62 | 1001.1 |
| 20260508164546 | 55 | 108 | 2.6 | 7.8 | 0.00 | 1.00 | 0.05 | 69 | 1001.0 |
| 20260508163045 | 54 | 144 | 2.6 | 6.1 | 0.00 | 1.00 | 0.05 | 71 | 1001.0 |
| 20260508161545 | 53 | 0 | 1.7 | 6.1 | 0.00 | 1.00 | 0.05 | 75 | 1001.1 |
| 20260508160042 | 53 | 148 | 2.6 | 5.2 | 0.00 | 1.00 | 0.05 | 73 | 1001.0 |
| 20260508154546 | 54 | 124 | 2.6 | 7.0 | 0.00 | 1.00 | 0.05 | 73 | 1001.0 |
| 20260508153041 | 54 | 143 | 1.7 | 7.0 | 0.00 | 1.00 | 0.05 | 73 | 1001.0 |
| 20260508151545 | 54 | 151 | 1.7 | 4.3 | 0.00 | 1.00 | 0.05 | 73 | 1001.0 |
| 20260508150040 | 56 | 151 | 1.7 | 6.1 | 0.00 | 1.00 | 0.05 | 73 | 1000.9 |
| 20260508144546 | 56 | 123 | 2.6 | 7.0 | 0.00 | 1.00 | 0.05 | 75 | 1001.0 |
| 20260508143046 | 56 | 146 | 1.7 | 6.1 | 0.00 | 1.00 | 0.05 | 75 | 1001.3 |
| 20260508141546 | 55 | 139 | 0.9 | 5.2 | 0.00 | 1.00 | 0.05 | 78 | 1001.4 |
| 20260508140044 | 54 | 139 | 1.7 | 7.0 | 0.00 | 1.00 | 0.05 | 80 | 1001.6 |
| 20260508134544 | 53 | 137 | 1.7 | 4.3 | 0.00 | 1.00 | 0.05 | 83 | 1002.1 |
| 20260508133046 | 51 | 148 | 1.7 | 6.1 | 0.00 | 1.00 | 0.05 | 86 | 1002.1 |
| 20260508131545 | 50 | 141 | 0.9 | 6.1 | 0.00 | 1.00 | 0.05 | 90 | 1001.7 |
| 20260508130042 | 50 | 171 | 2.6 | 7.0 | 0.00 | 1.00 | 0.05 | 92 | 1001.7 |
| 20260508124540 | 50 | 105 | 0.9 | 4.3 | 0.00 | 1.00 | 0.05 | 94 | 1001.9 |
| 20260508123044 | 49 | 0 | 0.9 | 3.5 | 0.00 | 1.00 | 0.05 | 95 | 1001.7 |
| 20260508121543 | 48 | 65 | 0.0 | 1.7 | 0.00 | 1.00 | 0.05 | 95 | 1001.7 |
| 20260508120044 | 47 | 0 | 0.0 | 2.6 | 0.00 | 1.00 | 0.05 | 95 | 1002.1 |
| 20260508114551 | 46 | 0 | 0.0 | 2.6 | 0.00 | 1.07 | 0.05 | 95 | 1002.3 |
| 20260508113045 | 43 | 62 | 0.0 | 1.7 | 0.00 | 1.06 | 0.04 | 95 | 1002.0 |
| 20260508111557 | 42 | 0 | 0.0 | 0.9 | 0.00 | 1.06 | 0.04 | 95 | 1002.1 |
| 20260508110040 | 41 | 0 | 0.0 | 0.0 | 0.00 | 1.06 | 0.04 | 95 | 1002.4 |
| 20260508104544 | 41 | 0 | 0.0 | 0.9 | 0.00 | 1.09 | 0.04 | 95 | 1002.6 |
| 20260508103042 | 41 | 62 | 0.0 | 2.6 | 0.00 | 1.09 | 0.04 | 95 | 1002.5 |
| 20260508101545 | 40 | 0 | 0.0 | 0.9 | 0.00 | 1.09 | 0.04 | 94 | 1002.5 |
| 20260508100045 | 40 | 0 | 0.0 | 0.0 | 0.00 | 1.09 | 0.04 | 95 | 1002.2 |
| 20260508094542 | 39 | 60 | 0.9 | 1.7 | 0.00 | 1.11 | 0.04 | 94 | 1002.1 |
| 20260508093045 | 39 | 0 | 0.0 | 0.0 | 0.00 | 1.11 | 0.04 | 94 | 1001.9 |
| 20260508091554 | 39 | 0 | 0.0 | 0.0 | 0.00 | 1.11 | 0.04 | 94 | 1001.7 |
| 20260508090047 | 39 | 0 | 0.0 | 0.0 | 0.00 | 1.11 | 0.04 | 94 | 1001.9 |
| 20260508084541 | 40 | 60 | 0.9 | 2.6 | 0.00 | 1.11 | 0.04 | 94 | 1002.0 |
| 20260508083048 | 40 | 60 | 0.0 | 0.9 | 0.00 | 1.11 | 0.03 | 94 | 1001.5 |
| 20260508081546 | 40 | 0 | 0.0 | 0.0 | 0.00 | 1.11 | 0.03 | 94 | 1001.4 |
| 20260508080048 | 41 | 0 | 0.0 | 0.0 | 0.00 | 1.11 | 0.03 | 94 | 1001.0 |
| 20260508074544 | 41 | 0 | 0.0 | 1.7 | 0.00 | 1.11 | 0.03 | 94 | 1001.3 |
| 20260508073052 | 42 | 59 | 1.7 | 3.5 | 0.00 | 1.11 | 0.03 | 94 | 1001.1 |
| 20260508071541 | 42 | 0 | 0.9 | 2.6 | 0.00 | 1.11 | 0.03 | 94 | 1001.3 |
| 20260508070041 | 43 | 0 | 0.0 | 0.0 | 0.00 | 1.11 | 0.03 | 94 | 1001.3 |
| 20260508064540 | 43 | 0 | 0.0 | 0.0 | 0.00 | 1.13 | 0.03 | 94 | 1001.2 |
| 20260508063045 | 43 | 0 | 0.0 | 0.0 | 0.00 | 1.13 | 0.03 | 94 | 1001.3 |
| 20260508061542 | 44 | 0 | 0.0 | 0.0 | 0.00 | 1.13 | 0.03 | 94 | 1001.4 |
| 20260508060048 | 44 | 0 | 0.0 | 0.0 | 0.01 | 1.13 | 0.03 | 95 | 1001.3 |
| 20260508054544 | 44 | 0 | 0.0 | 0.0 | 0.00 | 1.12 | 0.03 | 94 | 1001.4 |
| 20260508053040 | 45 | 0 | 0.0 | 0.0 | 0.00 | 1.12 | 0.03 | 95 | 1001.3 |
| 20260508051549 | 45 | 0 | 0.0 | 0.0 | 0.00 | 1.12 | 0.03 | 95 | 1001.2 |
| 20260508050044 | 45 | 0 | 0.0 | 0.0 | 0.00 | 1.11 | 0.02 | 94 | 1001.4 |
| 20260508044541 | 45 | 0 | 0.0 | 0.0 | 0.00 | 1.11 | 0.02 | 94 | 1001.2 |
| 20260508043049 | 45 | 0 | 0.0 | 0.0 | 0.01 | 1.11 | 0.02 | 94 | 1001.2 |
| 20260508041541 | 46 | 0 | 0.0 | 0.0 | 0.01 | 1.11 | 0.02 | 94 | 1001.2 |
| 20260508040046 | 46 | 0 | 0.0 | 0.0 | 0.01 | 1.11 | 0.01 | 94 | 1001.0 |
| 20260508034548 | 47 | 0 | 0.0 | 0.0 | 0.01 | 1.11 | 0.01 | 94 | 1001.3 |
| 20260508033041 | 47 | 0 | 0.0 | 1.7 | 0.01 | 1.10 | 0.00 | 94 | 1001.4 |
| 20260508031541 | 47 | 0 | 0.0 | 0.0 | 0.01 | 1.10 | 0.00 | 95 | 1001.3 |
| 20260508030040 | 47 | 0 | 0.0 | 0.9 | 0.01 | 1.09 | 0.00 | 95 | 1001.6 |
| 20260508024554 | 47 | 0 | 0.0 | 1.7 | 0.02 | 1.09 | 1.09 | 94 | 1001.4 |
| 20260508023042 | 47 | 0 | 0.0 | 2.6 | 0.01 | 1.08 | 1.08 | 94 | 1001.3 |
| 20260508021542 | 46 | 0 | 0.0 | 2.6 | 0.02 | 1.08 | 1.08 | 94 | 1001.2 |
| 20260508020044 | 46 | 0 | 0.0 | 0.0 | 0.02 | 1.07 | 1.07 | 94 | 1001.3 |
| 20260508014541 | 46 | 0 | 0.0 | 0.0 | 0.02 | 1.07 | 1.07 | 94 | 1001.2 |
| 20260508013046 | 47 | 0 | 0.0 | 0.0 | 0.03 | 1.07 | 1.07 | 94 | 1001.0 |
| 20260508011548 | 48 | 0 | 0.0 | 0.9 | 0.03 | 1.06 | 1.06 | 94 | 1000.9 |
| 20260508010042 | 49 | 0 | 0.0 | 2.6 | 0.03 | 1.05 | 1.05 | 94 | 1001.1 |
| 20260508004548 | 49 | 0 | 0.0 | 2.6 | 0.03 | 1.04 | 1.04 | 94 | 1001.1 |
| 20260508003043 | 49 | 0 | 0.0 | 2.6 | 0.04 | 1.03 | 1.03 | 94 | 1001.6 |
| 20260508001542 | 49 | 315 | 0.0 | 2.6 | 0.04 | 1.02 | 1.02 | 94 | 1001.5 |
| 20260508000045 | 49 | 0 | 0.0 | 0.9 | 0.05 | 1.01 | 1.01 | 94 | 1001.5 |
| 20260507234549 | 49 | 0 | 0.0 | 1.7 | 0.06 | 1.00 | 1.00 | 94 | 1001.5 |
| 20260507233047 | 50 | 315 | 0.0 | 1.7 | 0.06 | 0.99 | 0.99 | 94 | 1001.4 |
| 20260507231549 | 50 | 315 | 1.7 | 4.3 | 0.06 | 0.97 | 0.97 | 94 | 1001.6 |
| 20260507230042 | 50 | 316 | 1.7 | 5.2 | 0.07 | 0.96 | 0.96 | 94 | 1001.7 |
| 20260507224541 | 50 | 0 | 0.9 | 2.6 | 0.07 | 0.94 | 0.94 | 94 | 1001.5 |
| 20260507223041 | 50 | 67 | 0.9 | 5.2 | 0.08 | 0.92 | 0.92 | 94 | 1001.8 |
| 20260507221543 | 50 | 237 | 1.7 | 7.0 | 0.10 | 0.91 | 0.91 | 94 | 1001.8 |
| 20260507220042 | 50 | 275 | 1.7 | 4.3 | 0.11 | 0.88 | 0.88 | 94 | 1001.9 |
| 20260507214541 | 50 | 256 | 1.7 | 5.2 | 0.11 | 0.86 | 0.86 | 94 | 1002.1 |
| 20260507213046 | 50 | 303 | 0.0 | 4.3 | 0.13 | 0.84 | 0.84 | 94 | 1002.3 |
| 20260507211544 | 50 | 0 | 0.0 | 4.3 | 0.14 | 0.81 | 0.81 | 94 | 1002.2 |
| 20260507210046 | 50 | 0 | 0.0 | 0.0 | 0.16 | 0.77 | 0.77 | 94 | 1001.4 |
| 20260507204548 | 50 | 0 | 0.0 | 1.7 | 0.17 | 0.74 | 0.74 | 94 | 1001.9 |
| 20260507203045 | 50 | 21 | 0.0 | 2.6 | 0.19 | 0.70 | 0.70 | 94 | 1002.3 |
| 20260507201558 | 50 | 0 | 0.0 | 2.6 | 0.20 | 0.66 | 0.66 | 93 | 1002.9 |
| 20260507200045 | 51 | 0 | 0.0 | 2.6 | 0.20 | 0.61 | 0.61 | 93 | 1002.9 |
| 20260507194551 | 51 | 0 | 0.0 | 2.6 | 0.22 | 0.56 | 0.56 | 93 | 1003.8 |
| 20260507193054 | 51 | 8 | 1.7 | 3.5 | 0.22 | 0.51 | 0.51 | 93 | 1004.0 |
| 20260507191548 | 51 | 23 | 0.9 | 2.6 | 0.22 | 0.45 | 0.45 | 93 | 1004.4 |
| 20260507190046 | 52 | 0 | 0.0 | 2.6 | 0.19 | 0.40 | 0.40 | 93 | 1004.5 |
| 20260507184545 | 52 | 180 | 0.9 | 3.5 | 0.16 | 0.34 | 0.34 | 93 | 1004.6 |